Date String (YYYY-MM-DD hh:mm:ss) UTC,Instrument flags,absolute air pressure of the measurement (hPa),sample flow rate (lpm),inlet stack bypass flow (lpm),air temperature of the measurement (°C),ambient temperature measured by the external sensor (°C),aerosol sample conditioner tube jacket temperature (°C),OPC LED temperature (°C),internal box temperature (°C),relative humidity of the measurement (%),span deviation,mass concentration of particles derived from Lorenz-Mie calculation of OPC scattering (μg/m³),mass concentration of particles derived from Lorenz-Mie calculation of OPC scattering (μg/m³),mass concentration of particles derived from Lorenz-Mie calculation of OPC scattering (μg/m³)
DateTimeUTC,F1_M11,P_M11,Q1_M11,Q2_M11,T1_M11,T2_M11,T3_M11,T4_M11,T5_M11,U1_M11,ZSPAN_M11,X2_M11,X0_M11,X1_M11
2023-12-21 08:00:00,SystemResetWarning,0829.7,5.00,000.00,024.2,023.2,000.0,032.5,025.5,13.3,0000.0,0002.26,0008.35,0001.75
2023-12-21 08:01:00,SystemResetWarning,0829.8,5.00,000.00,024.2,023.2,000.0,032.5,025.5,13.2,0000.0,0002.16,0007.90,0001.71
2023-12-21 08:02:00,SystemResetWarning,0829.8,5.01,000.00,024.2,023.2,000.0,032.5,025.5,13.2,0000.0,0002.05,0007.60,0001.66
2023-12-21 08:03:00,SystemResetWarning,0829.8,5.00,000.00,024.2,023.2,000.0,032.5,025.6,13.1,0000.0,0002.05,0007.65,0001.64
2023-12-21 08:04:00,SystemResetWarning,0829.8,5.00,000.00,024.2,023.3,000.0,032.5,025.6,13.1,0000.0,0002.07,0007.65,0001.63
2023-12-21 08:05:00,SystemResetWarning,0829.8,5.00,000.00,024.2,023.3,000.0,032.5,025.5,13.2,0000.0,0002.10,0008.28,0001.63
2023-12-21 08:06:00,SystemResetWarning,0829.8,5.01,000.00,024.2,023.3,000.0,032.5,025.5,13.2,0000.0,0002.15,0007.71,0001.64
2023-12-21 08:07:00,SystemResetWarning,0829.8,5.00,000.00,024.2,023.3,000.0,032.5,025.5,13.2,0000.0,0002.22,0008.92,0001.67
2023-12-21 08:08:00,SystemResetWarning,0829.8,5.00,000.00,024.2,023.2,000.0,032.5,025.5,13.2,0000.0,0002.34,0009.99,0001.72
2023-12-21 08:09:00,SystemResetWarning,0829.8,5.00,000.00,024.2,023.2,000.0,032.5,025.5,13.2,0000.0,0002.46,0010.98,0001.76
2023-12-21 08:10:00,SystemResetWarning,0829.8,5.00,000.00,024.2,023.2,000.0,032.5,025.5,13.3,0000.0,0002.56,0010.93,0001.81
2023-12-21 08:11:00,SystemResetWarning,0829.8,5.00,000.00,024.2,023.2,000.0,032.5,025.5,13.3,0000.0,0002.63,0010.00,0001.84
2023-12-21 08:12:00,SystemResetWarning,0829.8,5.00,000.00,024.2,023.2,000.0,032.5,025.5,13.3,0000.0,0002.76,0010.10,0001.88
2023-12-21 08:13:00,SystemResetWarning,0829.8,5.00,000.00,024.2,023.2,000.0,032.5,025.5,13.2,0000.0,0002.86,0010.15,0001.93
2023-12-21 08:14:00,SystemResetWarning,0829.8,5.00,000.00,024.2,023.2,000.0,032.5,025.5,13.2,0000.0,0002.89,0010.21,0001.97
2023-12-21 08:15:00,SystemResetWarning,0829.8,5.00,000.00,024.2,023.2,000.0,032.5,025.5,13.2,0000.0,0002.95,0010.15,0002.02
2023-12-21 08:16:00,SystemResetWarning,0829.8,5.00,000.00,024.2,023.2,000.0,032.5,025.5,13.3,0000.0,0003.01,0009.62,0002.04
2023-12-21 08:17:00,SystemResetWarning,0829.8,5.00,000.00,024.2,023.2,000.0,032.5,025.5,13.2,0000.0,0003.06,0009.72,0002.06
2023-12-21 08:18:00,SystemResetWarning,0829.8,5.00,000.00,024.2,023.2,000.0,032.5,025.5,13.2,0000.0,0003.04,0008.46,0002.07
2023-12-21 08:19:00,SystemResetWarning,0829.8,5.00,000.00,024.2,023.2,000.0,032.5,025.5,13.2,0000.0,0003.00,0007.96,0002.09
2023-12-21 08:20:00,SystemResetWarning,0829.8,5.00,000.00,024.2,023.2,000.0,032.5,025.5,13.3,0000.0,0002.97,0007.75,0002.10
2023-12-21 08:21:00,SystemResetWarning,0829.8,4.99,000.00,024.2,023.2,000.0,032.5,025.5,13.3,0000.0,0002.95,0008.29,0002.09
2023-12-21 08:22:00,SystemResetWarning,0829.8,5.00,000.00,024.2,023.2,000.0,032.5,025.5,13.2,0000.0,0002.92,0008.23,0002.08
2023-12-21 08:23:00,SystemResetWarning,0829.8,5.01,000.00,024.2,023.2,000.0,032.5,025.5,13.2,0000.0,0002.86,0008.08,0002.09
2023-12-21 08:24:00,SystemResetWarning,0829.8,5.00,000.00,024.2,023.2,000.0,032.5,025.5,13.3,0000.0,0002.86,0008.02,0002.10
2023-12-21 08:25:00,SystemResetWarning,0829.8,5.00,000.00,024.2,023.2,000.0,032.5,025.6,13.3,0000.0,0002.91,0008.04,0002.12
2023-12-21 08:26:00,SystemResetWarning,0829.8,5.00,000.00,024.2,023.2,000.0,032.5,025.5,13.3,0000.0,0002.95,0008.20,0002.14
2023-12-21 08:27:00,SystemResetWarning,0829.8,5.00,000.00,024.2,023.2,000.0,032.5,025.5,13.3,0000.0,0002.94,0008.05,0002.16
2023-12-21 08:28:00,SystemResetWarning,0829.9,5.00,000.00,024.2,023.2,000.0,032.5,025.5,13.3,0000.0,0002.97,0008.71,0002.19
2023-12-21 08:29:00,SystemResetWarning,0829.9,5.00,000.00,024.2,023.2,000.0,032.5,025.5,13.3,0000.0,0003.05,0009.43,0002.21
2023-12-21 08:30:00,SystemResetWarning,0829.9,5.00,000.00,024.2,023.2,000.0,032.5,025.5,13.4,0000.0,0003.08,0009.47,0002.20
2023-12-21 08:31:00,SystemResetWarning,0829.9,5.00,000.00,024.2,023.2,000.0,032.5,025.5,13.4,0000.0,0003.06,0008.73,0002.18
2023-12-21 08:32:00,SystemResetWarning,0829.9,5.00,000.00,024.2,023.2,000.0,032.5,025.5,13.4,0000.0,0003.05,0008.15,0002.20
2023-12-21 08:33:00,SystemResetWarning,0829.9,4.99,000.00,024.2,023.1,000.0,032.5,025.5,13.4,0000.0,0003.04,0007.99,0002.23
2023-12-21 08:34:00,SystemResetWarning,0829.9,5.00,000.00,024.2,023.1,000.0,032.5,025.5,13.3,0000.0,0003.06,0008.08,0002.24
2023-12-21 08:35:00,SystemResetWarning,0829.9,5.00,000.00,024.2,023.2,000.0,032.5,025.5,13.2,0000.0,0003.09,0008.29,0002.24
2023-12-21 08:36:00,SystemResetWarning,0829.9,5.01,000.00,024.2,023.2,000.0,032.5,025.5,13.3,0000.0,0003.07,0008.19,0002.23
2023-12-21 08:37:00,SystemResetWarning,0829.9,5.00,000.00,024.2,023.1,000.0,032.5,025.5,13.5,0000.0,0003.01,0007.97,0002.23
2023-12-21 08:38:00,SystemResetWarning,0829.8,5.01,000.00,024.2,023.1,000.0,032.5,025.5,13.5,0000.0,0003.00,0008.03,0002.22
2023-12-21 08:39:00,SystemResetWarning,0829.8,4.99,000.00,024.1,023.1,000.0,032.5,025.5,13.4,0000.0,0002.94,0007.46,0002.21
2023-12-21 08:40:00,SystemResetWarning,0829.8,4.99,000.00,024.1,023.1,000.0,032.5,025.5,13.4,0000.0,0002.85,0006.80,0002.21
2023-12-21 08:41:00,SystemResetWarning,0829.8,5.00,000.00,024.2,023.2,000.0,032.5,025.5,13.4,0000.0,0002.88,0006.27,0002.22
2023-12-21 08:42:00,SystemResetWarning,0829.8,5.00,000.00,024.1,023.2,000.0,032.5,025.5,13.5,0000.0,0002.87,0006.13,0002.24
2023-12-21 08:43:00,SystemResetWarning,0829.8,5.00,000.00,024.1,023.2,000.0,032.5,025.5,13.5,0000.0,0002.86,0006.78,0002.22
2023-12-21 08:44:00,SystemResetWarning,0829.8,5.00,000.00,024.1,023.1,000.0,032.4,025.5,13.4,0000.0,0002.84,0007.21,0002.20
2023-12-21 08:45:00,SystemResetWarning,0829.8,5.00,000.00,024.1,023.1,000.0,032.4,025.5,13.4,0000.0,0002.85,0007.62,0002.20
2023-12-21 08:46:00,SystemResetWarning,0829.8,5.00,000.00,024.1,023.1,000.0,032.5,025.5,13.4,0000.0,0002.84,0008.30,0002.18
2023-12-21 08:47:00,SystemResetWarning,0829.8,5.00,000.00,024.1,023.1,000.0,032.4,025.5,13.4,0000.0,0002.83,0008.29,0002.18
2023-12-21 08:48:00,SystemResetWarning,0829.8,5.00,000.00,024.1,023.1,000.0,032.4,025.5,13.3,0000.0,0002.85,0008.43,0002.18
2023-12-21 08:49:00,SystemResetWarning,0829.8,5.00,000.00,024.1,023.1,000.0,032.4,025.5,13.3,0000.0,0002.86,0008.55,0002.18
2023-12-21 08:50:00,SystemResetWarning,0829.8,5.00,000.00,024.1,023.2,000.0,032.4,025.5,13.3,0000.0,0002.88,0008.59,0002.19
2023-12-21 08:51:00,SystemResetWarning,0829.9,5.00,000.00,024.1,023.1,000.0,032.4,025.5,13.3,0000.0,0002.91,0008.26,0002.19
2023-12-21 08:52:00,SystemResetWarning,0829.9,5.00,000.00,024.1,023.1,000.0,032.4,025.5,13.3,0000.0,0002.84,0008.34,0002.19
2023-12-21 08:53:00,SystemResetWarning,0829.9,5.00,000.00,024.1,023.1,000.0,032.4,025.5,13.3,0000.0,0002.83,0008.42,0002.19
2023-12-21 08:54:00,SystemResetWarning,0829.9,5.00,000.00,024.1,023.1,000.0,032.4,025.5,13.3,0000.0,0002.96,0008.25,0002.24
2023-12-21 08:55:00,SystemResetWarning,0829.9,5.00,000.00,024.1,023.1,000.0,032.4,025.5,13.3,0000.0,0003.04,0008.06,0002.26
2023-12-21 08:56:00,SystemResetWarning,0830.0,5.00,000.00,024.1,023.1,000.0,032.4,025.5,13.3,0000.0,0003.06,0007.70,0002.27
2023-12-21 08:57:00,SystemResetWarning,0830.0,5.00,000.00,024.1,023.1,000.0,032.4,025.5,13.3,0000.0,0003.07,0006.43,0002.30
2023-12-21 08:58:00,SystemResetWarning,0830.0,5.00,000.00,024.1,023.1,000.0,032.4,025.5,13.3,0000.0,0003.10,0006.67,0002.32
2023-12-21 08:59:00,SystemResetWarning,0830.0,5.00,000.00,024.1,023.1,000.0,032.4,025.5,13.3,0000.0,0003.10,0006.98,0002.35
